TimeCST,TemperatureF,Dew PointF,Humidity,Sea Level PressureIn,VisibilityMPH,Wind Direction,Wind SpeedMPH,Gust SpeedMPH,PrecipitationIn,Events,Conditions,WindDirDegrees,DateUTC
12:53 AM,21.9,18.0,85,29.90,7.0,SW,5.8,-,N/A,,Clear,230,2013-02-13 06:53:00
1:53 AM,21.0,18.0,88,29.89,6.0,SSW,4.6,-,N/A,,Clear,210,2013-02-13 07:53:00
2:53 AM,21.0,18.0,88,29.87,6.0,SSW,5.8,-,N/A,,Clear,200,2013-02-13 08:53:00
3:53 AM,21.9,19.0,89,29.85,6.0,SSW,6.9,-,N/A,,Clear,210,2013-02-13 09:53:00
4:53 AM,21.0,19.0,92,29.84,6.0,South,3.5,-,N/A,,Clear,190,2013-02-13 10:53:00
5:53 AM,19.0,17.1,92,29.83,5.0,SSW,4.6,-,N/A,,Clear,200,2013-02-13 11:53:00
6:53 AM,21.9,19.0,89,29.82,4.0,SW,4.6,-,N/A,,Clear,220,2013-02-13 12:53:00
7:53 AM,25.0,21.9,88,29.81,4.0,SW,6.9,-,N/A,,Clear,230,2013-02-13 13:53:00
8:53 AM,28.0,24.1,85,29.81,5.0,West,5.8,-,N/A,,Clear,260,2013-02-13 14:53:00
9:53 AM,30.9,25.0,79,29.80,6.0,West,8.1,-,N/A,,Haze,260,2013-02-13 15:53:00
10:53 AM,35.1,26.1,70,29.79,7.0,SW,5.8,-,N/A,,Clear,230,2013-02-13 16:53:00
11:53 AM,37.0,26.1,65,29.77,9.0,SW,8.1,-,N/A,,Scattered Clouds,230,2013-02-13 17:53:00
12:53 PM,39.0,27.0,62,29.74,9.0,West,8.1,-,N/A,,Clear,270,2013-02-13 18:53:00
1:53 PM,39.0,25.0,57,29.73,10.0,WSW,9.2,-,N/A,,Mostly Cloudy,240,2013-02-13 19:53:00
2:53 PM,39.0,26.1,60,29.73,10.0,WSW,8.1,-,N/A,,Scattered Clouds,250,2013-02-13 20:53:00
3:53 PM,39.0,27.0,62,29.73,9.0,WSW,8.1,-,N/A,,Scattered Clouds,240,2013-02-13 21:53:00
4:53 PM,37.0,27.0,67,29.74,9.0,West,6.9,-,N/A,,Clear,260,2013-02-13 22:53:00
5:53 PM,36.0,27.0,70,29.75,9.0,WSW,5.8,-,N/A,,Clear,240,2013-02-13 23:53:00
6:53 PM,33.1,27.0,78,29.76,9.0,WSW,4.6,-,N/A,,Clear,240,2013-02-14 00:53:00
7:53 PM,32.0,27.0,82,29.76,8.0,WSW,5.8,-,N/A,,Clear,250,2013-02-14 01:53:00
8:53 PM,33.1,27.0,78,29.75,9.0,WSW,5.8,-,N/A,,Overcast,250,2013-02-14 02:53:00
9:53 PM,33.1,28.0,82,29.75,9.0,West,3.5,-,N/A,,Overcast,260,2013-02-14 03:53:00
10:53 PM,34.0,28.9,82,29.74,8.0,WSW,6.9,-,N/A,,Mostly Cloudy,250,2013-02-14 04:53:00
11:53 PM,34.0,28.9,82,29.73,9.0,SW,8.1,-,N/A,,Overcast,230,2013-02-14 05:53:00